Fairbanks Eiels, AK

1:41 AM AKDT on October 17, 2018 (GMT -0800)
Eielson Air Force Base

Weather History for PAEI - January, 2018

Change the Weather History Date:

Sunday, January 14, 2018

  Actual Average Record
Temperature  
Mean Temperature 24 °F -  
Max Temperature 35 °F -3 °F 48 °F (2009)
Min Temperature 12 °F -19 °F -51 °F (1951)
Degree Days  
Heating Degree Days 42    
Moisture  
Dew Point 20 °F    
Average Humidity 66    
Maximum Humidity 90    
Minimum Humidity 59    
Precipitation  
Precipitation 0.00 in - - ()
Snow  
Snow 0.00 in - - ()
Snow Depth 13.00 in    
Sea Level Pressure  
Sea Level Pressure 29.37 in    
Wind  
Wind Speed 12 mph (East)    
Max Wind Speed 22 mph    
Max Gust Speed 33 mph    
Visibility 10 miles    
Events      
Averages and records for this station are not official NWS values.
T = Trace of Precipitation, MM = Missing Value Source: NWS Daily Summary

Daily Weather History Graph

Daily Weather History Graph

Search for Another Location

Airport or City:

Astronomy

Jan. 14, 2018 Rise Set
Actual Time 10:23 AM AKST 3:32 PM AKST
Civil Twilight 9:13 AM AKST 4:42 PM AKST
Nautical Twilight 8:07 AM AKST 5:48 PM AKST
Astronomical Twilight 7:07 AM AKST 6:47 PM AKST
Moon 8:23 AM AKST (1/14) 1:58 PM AKST (1/14)
Length of Visible Light 7h 29m
Length of Day
5h 08m
Waning Crescent, 4% of the Moon is Illuminated
Jan 14
Waning Crescent
Jan 16
New
Jan 24
First Quarter
Jan 31
Full
Feb 7
Last Quarter

Hourly Weather History & Observations

Time (AKST) Temp. Windchill Dew Point Humidity Pressure Visibility Wind Dir Wind Speed Gust Speed Precip Events Conditions
12:27 AM 24.8 °F 12.9 °F 14.0 °F 64% 29.37 in 10.0 mi NE 13.8 mph 23.0 mph N/A   Clear
12:37 AM 24.8 °F 13.4 °F 12.2 °F 59% 29.38 in 10.0 mi East 12.7 mph - N/A   Scattered Clouds
12:56 AM 23.9 °F 12.3 °F 14.2 °F 66% 29.39 in 10.0 mi East 12.7 mph 19.6 mph N/A   Scattered Clouds
1:56 AM 15.3 °F - 8.8 °F 76% 29.41 in 10.0 mi Calm Calm - N/A   Scattered Clouds
2:56 AM 12.6 °F - 7.0 °F 78% 29.43 in 10.0 mi Calm Calm - N/A   Clear
3:56 AM 14.2 °F 3.1 °F 8.6 °F 78% 29.42 in 10.0 mi NNW 8.1 mph - N/A   Clear
4:56 AM 16.7 °F - 10.9 °F 78% 29.41 in 10.0 mi Calm Calm - N/A   Clear
5:21 AM 23.0 °F 10.1 °F 15.8 °F 74% 29.38 in 10.0 mi East 15.0 mph 20.7 mph N/A   Clear
5:42 AM 30.2 °F 19.3 °F 19.4 °F 64% 29.39 in 10.0 mi ESE 15.0 mph 21.9 mph N/A   Clear
5:45 AM 30.2 °F 19.8 °F 19.4 °F 64% 29.39 in 10.0 mi ENE 13.8 mph 21.9 mph N/A   Clear
5:53 AM 30.2 °F 20.2 °F 19.4 °F 64% 29.39 in 10.0 mi East 12.7 mph 20.7 mph N/A   Clear
5:56 AM 30.2 °F 20.8 °F 18.7 °F 62% 29.39 in 10.0 mi East 11.5 mph 20.7 mph N/A   Clear
6:09 AM 30.2 °F 20.8 °F 19.4 °F 64% 29.39 in 10.0 mi ENE 11.5 mph 17.3 mph N/A   Clear
6:56 AM 30.4 °F 20.5 °F 19.6 °F 64% 29.38 in 10.0 mi East 12.7 mph 17.3 mph N/A   Clear
7:56 AM 33.3 °F 23.2 °F 20.5 °F 59% 29.36 in 10.0 mi ENE 15.0 mph 23.0 mph N/A   Mostly Cloudy
8:09 AM 32.0 °F 20.8 °F 21.2 °F 64% 29.35 in 10.0 mi ESE 17.3 mph 26.5 mph N/A   Overcast
8:20 AM 33.8 °F 22.2 °F 21.2 °F 60% 29.36 in 10.0 mi East 20.7 mph 33.4 mph N/A   Scattered Clouds
8:56 AM 32.5 °F 27.1 °F 20.1 °F 60% 29.37 in 10.0 mi ESE 5.8 mph - N/A   Clear
9:41 AM 32.0 °F 24.8 °F 19.4 °F 60% 29.37 in 10.0 mi East 8.1 mph - N/A   Clear
9:56 AM 31.5 °F 24.2 °F 19.6 °F 62% 29.36 in 10.0 mi ESE 8.1 mph - N/A   Clear
10:56 AM 32.5 °F 23.2 °F 20.7 °F 62% 29.36 in 10.0 mi East 12.7 mph 23.0 mph N/A   Clear
11:52 AM 33.8 °F 22.8 °F 21.2 °F 60% 29.35 in 10.0 mi ESE 18.4 mph 29.9 mph N/A   Partly Cloudy
11:56 AM 32.9 °F 21.3 °F 21.4 °F 63% 29.35 in 10.0 mi East 19.6 mph 29.9 mph N/A   Clear
11:57 AM 33.8 °F 21.9 °F 21.2 °F 60% 29.35 in 10.0 mi ENE 21.9 mph 29.9 mph N/A   Clear
12:56 PM 33.8 °F 24.3 °F 21.4 °F 60% 29.37 in 10.0 mi East 13.8 mph 26.5 mph N/A   Clear
12:58 PM 33.8 °F 23.2 °F 21.2 °F 60% 29.36 in 10.0 mi ENE 17.3 mph 26.5 mph N/A   Clear
1:00 PM 33.8 °F 23.2 °F 21.2 °F 60% 29.37 in 10.0 mi East 17.3 mph 26.5 mph N/A   Clear
1:17 PM 33.8 °F 23.5 °F 21.2 °F 60% 29.37 in 10.0 mi ESE 16.1 mph 23.0 mph N/A   Clear
1:20 PM 33.8 °F 22.5 °F 21.2 °F 60% 29.37 in 10.0 mi ENE 19.6 mph 26.5 mph N/A   Clear
1:27 PM 33.8 °F 23.9 °F 21.2 °F 60% 29.37 in 10.0 mi ESE 15.0 mph 26.5 mph N/A   Clear
1:48 PM 33.8 °F 23.9 °F 23.0 °F 65% 29.37 in 10.0 mi ENE 15.0 mph 25.3 mph N/A   Clear
1:54 PM 33.8 °F 23.5 °F 21.2 °F 60% 29.37 in 10.0 mi ESE 16.1 mph 25.3 mph N/A   Clear
1:56 PM 33.4 °F 23.5 °F 21.7 °F 62% 29.37 in 10.0 mi ESE 15.0 mph 24.2 mph N/A   Clear
2:56 PM 34.0 °F 23.4 °F 22.3 °F 62% 29.37 in 10.0 mi East 17.3 mph 26.5 mph N/A   Partly Cloudy
3:43 PM 33.8 °F 22.8 °F 23.0 °F 65% 29.35 in 10.0 mi ESE 18.4 mph - N/A   Clear
3:53 PM 33.8 °F 23.2 °F 23.0 °F 65% 29.34 in 10.0 mi ENE 17.3 mph 26.5 mph N/A   Clear
3:56 PM 34.0 °F 22.1 °F 23.4 °F 65% 29.34 in 10.0 mi East 21.9 mph 28.8 mph N/A   Partly Cloudy
4:20 PM 33.8 °F 23.2 °F 23.0 °F 65% 29.36 in 10.0 mi ESE 17.3 mph 27.6 mph N/A   Clear
4:56 PM 34.3 °F 27.0 °F 23.0 °F 63% 29.35 in 10.0 mi ESE 9.2 mph 19.6 mph N/A   Scattered Clouds
5:38 PM 35.6 °F 29.2 °F 23.0 °F 60% 29.37 in 10.0 mi ESE 8.1 mph - N/A   Mostly Cloudy
5:56 PM 34.7 °F 26.4 °F 24.1 °F 65% 29.37 in 10.0 mi East 11.5 mph - N/A   Mostly Cloudy
6:56 PM 31.6 °F - 23.7 °F 73% 29.39 in 10.0 mi Calm Calm - N/A   Mostly Cloudy
7:56 PM 27.0 °F 19.5 °F 21.9 °F 81% 29.39 in 10.0 mi North 6.9 mph - N/A   Overcast
8:56 PM 24.4 °F 18.6 °F 21.0 °F 87% 29.38 in 10.0 mi NW 4.6 mph - N/A   Mostly Cloudy
9:56 PM 25.2 °F - 21.2 °F 85% 29.38 in 10.0 mi Calm Calm - N/A   Overcast
10:56 PM 26.8 °F - 21.7 °F 81% 29.39 in 10.0 mi Calm Calm - N/A   Mostly Cloudy
11:56 PM 21.9 °F - 19.4 °F 90% 29.37 in 10.0 mi Calm Calm - N/A   Partly Cloudy